www.pogodaiklimat.ru

Погода и климат >> Архив погоды >> Малайзия >> Kuala Lumpur


АРХИВ ПОГОДЫ в Kuala Lumpur

Время (UTC), дата Ветер
(напр.,м/с)
 
Видим.   Явления Облачность Т
(С)
Тd
(С)
f
(%)
Тe
(С)
Тes
(С)
Комфортность P
(гПа)
Po
(гПа)
Тmin
(С)
Tmax
(С)
R
(мм)
S
(см)
15 14.02 С 1 10 км мгла {ливн. осадки} 8/3 750 м
[Sc Ac lent Ci sp]
+26.8 +22.2 76 +35 +35 очень
душно
1015.7 1013.2
18 14.02 С 1 10 км мгла 8/4 750 м
[Sc Ac trans Ci sp]
+26.2 +22.3 79 +34 +34 очень
душно
1015.0 1012.5
21 14.02 С 1 10 км мгла 8/3 750 м
[Sc Ac trans Ci fib]
+25.3 +22.2 83 +33 +33 очень
душно
1013.5 1011.0
00 15.02 СЗ 2 9000 м мгла 8/3 570 м
[Cu Sc Ac trans Ci fib]
+24.9 +22.0 84 +32 +33 очень
душно
1014.2 1011.7 +24.2 3
03 15.02 СЗ 2 15 км мгла 8/1 600 м
[Cu hum Ac trans Ci sp]
+30.4 +21.7 60 +39 +47 очень
душно
1014.9 1012.4
06 15.02 СВ 2 15 км мгла 8/5 540 м
[Cu med, cong Ac trans Ci sp]
+31.6 +22.1 57 +40 +48 очень
душно
1013.0 1010.5 0.2
09 15.02 СЗ 5 13 км осадки на расстоянии 8/8 500 м
[Cb cap Ac trans Ci sp]
+30.9 +23.2 64 +41 +42 опасность
перегрева
1011.1 1008.6
12 15.02 ЮЗ 2 10 км мгла 8/4 600 м
[Cu hum Ac trans Ci sp]
+28.4 +23.2 73 +38 +38 очень
душно
1012.5 1010.0 +32.8
15 15.02 В 2 10 км зарница 8/4 500 м
[Cb cap Ac und Ci sp]
+27.4 +22.1 73 +36 +36 очень
душно
1014.9 1012.4
18 15.02 С 3 10 км зарница 8/4 500 м
[Cb cap Ac lent Ci sp]
+27.1 +19.0 61 +32 +32 очень
душно
1013.6 1011.1
21 15.02 С 1 10 км зарница 8/4 500 м
[Cb cap Ac lent Ci sp]
+24.7 +21.1 80 +31 +31 очень
душно
1012.2 1009.7
00 16.02 штиль 0 15 км мгла 8/1 800 м
[Sc Ac trans Ci sp]
+24.4 +21.1 82 +31 +31 очень
душно
1012.8 1010.3 +24.3
03 16.02 С 3 15 км мгла 8/1 600 м
[Cu hum Ac trans Ci sp]
+30.3 +20.7 57 +38 +44 очень
душно
1013.9 1011.4
06 16.02 СВ 3 14 км мгла 8/4 540 м
[Cu med, cong Ac lent Ci sp]
+32.4 +21.8 54 +41 +48 опасность
перегрева
1011.4 1008.9
09 16.02 ЮЗ 2 12 км мгла 8/3 540 м
[Cu med, cong Ac lent Ci sp]
+31.5 +23.3 62 +42 +45 опасность
перегрева
1009.9 1007.4
12 16.02 ЮЗ 2 10 км мгла 8/1 800 м
[Sc Ac trans Ci fib]
+28.7 +22.5 69 +38 +38 очень
душно
1011.0 1008.5 +33.1
15 16.02 СВ 1 10 км мгла 8/3 800 м
[Sc Ac trans Ci sp]
+27.0 +22.8 78 +36 +36 очень
душно
1013.1 1010.6
18 16.02 СВ 1 10 км мгла 8/1 800 м
[Sc Ac trans Ci sp]
+25.9 +21.6 77 +33 +33 очень
душно
1012.6 1010.1
21 16.02 штиль 0 10 км зарница 8/4 500 м
[Cb cap Ac trans Ci sp]
+25.1 +21.4 80 +32 +32 очень
душно
1011.5 1009.0
00 17.02 В 1 12 км мгла 8/4 600 м
[Cu hum Ac trans Ci sp]
+24.9 +22.2 85 +32 +33 очень
душно
1012.7 1010.2 +24.3
03 17.02 СВ 3 12 км мгла 8/3 570 м
[Cu med, cong Ac trans Ci fib]
+31.0 +22.7 61 +41 +46 опасность
перегрева
1013.7 1011.2
06 17.02 ЮВ 2 12 км мгла 8/4 570 м
[Cu med, cong Ac lent Ci sp]
+33.5 +23.0 54 +44 +52 опасность
перегрева
1011.1 1008.7
09 17.02 ЮЗ 3 10 км мгла 8/5 570 м
[Cu Sc Ac lent Ci sp]
+30.7 +24.9 71 +44 +46 опасность
перегрева
1009.6 1007.1
12 17.02 Ю 2 9000 м в посл. час дождь 8/3 750 м
[Sc Ac lent Cs]
+25.5 +23.8 90 +35 +35 очень
душно
1011.0 1008.5 +33.9 2
15 17.02 штиль 0 7000 м мгла 8/3 750 м
[Sc Ac lent Ci sp]
+26.2 +24.9 93 +37 +37 очень
душно
1013.0 1010.5
18 17.02 штиль 0 6000 м мгла 8/1 800 м
[Sc Ac lent Ci sp]
+25.9 +24.3 91 +36 +36 очень
душно
1012.8 1010.3
21 17.02 СЗ 1 6000 м мгла 8/3 750 м
[Sc Ac lent Ci sp]
+25.0 +23.8 93 +34 +34 очень
душно
1011.6 1009.1
00 18.02 штиль 0 6000 м мгла 8/4 500 м
[Cb cap Ac trans Ci fib]
+24.3 +23.4 95 +33 +33 очень
душно
1012.5 1010.0 +24.2 2
03 18.02 В 2 15 км мгла 8/3 500 м
[Cb cap Ac trans Ci sp]
+30.8 +23.8 66 +42 +48 опасность
перегрева
1013.5 1011.0
06 18.02 СВ 2 18 км мгла 8/3 600 м
[Cu med, cong Ac und Ci sp]
+32.8 +23.6 59 +44 +54 опасность
перегрева
1011.7 1009.3
09 18.02 ЮЗ 5 9000 м мгла 8/3 600 м
[Cu med, cong Ac lent Ci sp]
+32.1 +25.5 68 +47 +48 опасность
перегрева
1009.7 1007.3
12 18.02 Ю 3 10 км мгла 8/3 600 м
[Cu Sc Ac trans Ci fib]
+28.8 +24.4 77 +40 +40 очень
душно
1011.4 1008.9 +35.0
15 18.02 СВ 1 1000 м зарница 8/4 500 м
[Cb cap Ac trans Ci fib]
+28.0 +24.9 83 +40 +40 очень
душно
1012.9 1010.4
18 18.02 СЗ 1 9000 м мгла 8/4 750 м
[Sc Ac trans Ci fib]
+27.1 +24.2 84 +38 +38 очень
душно
1012.5 1010.0
21 18.02 СЗ 3 9000 м мгла 8/3 750 м
[Sc Ac trans Ci fib]
+25.8 +23.4 87 +35 +35 очень
душно
1010.9 1008.4
00 19.02 СЗ 1 12 км мгла 8/3 570 м
[Cu Sc Ac trans Ci fib]
+25.1 +23.4 90 +34 +34 очень
душно
1011.8 1009.3 +24.3
03 19.02 СВ 3 15 км мгла 9/4 500 м
[Cb cap Ac trans Ci sp]
+31.9 +23.8 62 +43 +48 опасность
перегрева
1013.0 1010.5
06 19.02 З 3 15 км мгла 8/5 540 м
[Cu med, cong Ac lent Ci sp]
+33.4 +24.3 59 +46 +52 опасность
перегрева
1010.5 1008.1
09 19.02 ЮЗ 3 15 км мгла 8/4 500 м
[Cb cap Ac trans Ci sp]
+32.9 +25.4 65 +47 +50 опасность
перегрева
1007.8 1005.4
12 19.02 СВ 2 8000 м слабый ливневой дождь, в посл. час гроза 8/5 150 м
[Cb cap Ac lent Ci sp]
+25.4 +23.7 90 +35 +35 очень
душно
1009.6 1007.1 +33.6 2
15 19.02 штиль 0 10 км мгла 8/1 800 м
[Sc Ac lent Ci sp]
+26.1 +24.7 92 +37 +37 очень
душно
1011.3 1008.8
18 19.02 З 1 7000 м мгла 8/3 180 м
[Sc Ac trans Ci sp]
+25.6 +24.6 94 +36 +36 очень
душно
1010.2 1007.7
21 19.02 СЗ 1 6000 м зарница 8/3 500 м
[Cb cap Ac trans Ci sp]
+25.8 +24.4 92 +36 +36 очень
душно
1009.0 1006.5
00 20.02 штиль 0 7000 м мгла 8/5 150 м
[Cb cap Ac lent Ci sp]
+25.4 +24.2 93 +35 +36 очень
душно
1010.5 1008.0 +25.0 2
03 20.02 В 2 15 км мгла 8/1 540 м
[Cu hum Ac trans Ci fib]
+31.1 +24.5 68 +44 +52 опасность
перегрева
1011.1 1008.6
06 20.02 Ю 2 16 км мгла 9/4 540 м
[Cu med, cong Ac trans Ci fib]
+34.0 +24.7 58 +47 +54 опасность
перегрева
1008.4 1006.0
09 20.02 ЮЗ 5 12 км мгла 8/3 540 м
[Cu med, cong Ac lent Ci sp]
+32.3 +26.3 71 +49 +50 опасность
перегрева
1006.2 1003.8
12 20.02 СВ 3 7000 м гроза, ливневой дождь 8/5 500 м
[Cb cap Ac lent Cs]
+25.6 +23.1 86 +34 +34 очень
душно
1008.4 1005.9 +34.7 1
15 20.02 С 2 10 км зарница {гроза, дождь} 8/4 500 м
[Cb cap Ac trans Ci sp]
+26.1 +23.9 88 +36 +36 очень
душно
1011.2 1008.7
18 20.02 СВ 1 10 км мгла 8/1 800 м
[Sc Ac trans Ci sp]
+25.9 +24.1 90 +36 +36 очень
душно
1010.3 1007.8
21 20.02 Ю 2 9000 м зарница 9/4 500 м
[Cb cap Ac trans Ci sp]
+26.1 +24.4 90 +36 +36 очень
душно
1009.3 1006.8
00 21.02 С 3 10 км мгла 8/4 150 м
[Sc Ac trans Ci sp]
+25.6 +23.9 90 +35 +35 очень
душно
1011.1 1008.6 +25.3 1
03 21.02 СЗ 3 12 км мгла 8/4 600 м
[Cu med, cong Ac trans Ci sp]
+29.8 +24.8 75 +43 +48 опасность
перегрева
1013.0 1010.5
06 21.02 С 2 10 км осадки на расстоянии 8/4 500 м
[Cb cap Ac lent Ci sp]
+31.3 +25.2 70 +45 +53 опасность
перегрева
1010.6 1008.1
09 21.02 ЮВ 4 10 км мгла 9/4 570 м
[Cu med, cong Ac lent Ci sp]
+30.1 +25.4 76 +44 +46 опасность
перегрева
1008.1 1005.6

 

Местоположение метеостанции Kuala Lumpur (Малайзия): широта 3.12 долгота 101.55 высота над уровнем моря 22 м.

В архиве по умолчанию представлена погода в Kuala Lumpur за последнюю неделю. Архивные данные за месяц целиком и за предыдущие месяцы, начиная с января 2011 года, Вы можете получить, выбрав интересующий диапазон дат из раскрывающегося списка и нажав кнопку "Ввод!".

Внимание! Время в таблицах - всемирное. Для получения местного времени необходимо прибавить поправку, которая в Kuala Lumpur равна 7 ч.

Смотрите также архив погоды в соседних городах и на ближайших метеорологических станциях:

Погода в Kuala Lumpur Int Airport (Малайзия) (48 км)
Погода в Malacca (Малайзия) (122 км)
Погода в Cameron Highlands (Малайзия) (151 км)
Погода в Sitiawan (Малайзия) (155 км)
Погода в Ipoh (Малайзия) (169 км)
Погода в Kuantan (Малайзия) (198 км)
Погода в Penang (Малайзия) (282 км)
Погода в Johore Bharu / Senai (Малайзия) (288 км)
Погода в Butterworth Air Base (Малайзия) (292 км)
Погода в Pekanbaru (Индонезия) (295 км)

Пояснения к столбцам:

Ветер - указаны скорость ветра в м/с - средняя за 10 мин, порывы в срок и между сроками (в фигурных скобках) и направление, откуда дует ветер: С - северный, СВ - северо-восточный, В - восточный, ЮВ - юго-восточный, Ю - южный, ЮЗ - юго-западный, З - западный, СЗ - северо-западный.
Видимость - горизонтальная дальность видимости в метрах или километрах. При видимости от 1 до 10 км при отсутствии осадков обычно наблюдается дымка, при ухудшении видимости до 1 км и менее - туман. В сухую погоду видимость может ухудшаться дымом, пылью или мглою.
Явления - указаны атмосферные явления, наблюдавшиеся в срок или в последний час перед сроком; фигурными скобками обозначены явления, наблюдавшиеся между сроками (за 1-3 часа до срока); квадратными скобками обозначены град или гололедные отложения с указанием их диаметра в мм.
Облачность - указаны через наклонную черту общая и нижняя облачность в баллах и высота нижней границы облаков в метрах; квадратными скобками обозначены формы облаков: Ci - перистые, Cs - перисто-слоистые, Cc - перисто-кучевые, Ac - высококучевые, As - высокослоистые, Sc - слоисто-кучевые, Ns - слоисто-дождевые, Cu - кучевые, Cb - кучево-дождевые. Подробнее классификацию облаков см. в Атласе облаков (PDF).
T - Температура воздуха - температура, измеренная на высоте 2 м над землей.
Td - Температура точки росы - температура, при понижении до которой содержащийся в воздухе водяной пар достигнет насыщения.
f - Относительная влажность воздуха - влажноcть воздуха, измеренная на высоте 2 м над землей.
Te - Эффективная температура - температура, которую ощущает одетый по сезону человек в тени. Характеристика душности погоды. При расчете учитывается влияние влажности воздуха и скорости ветра на теплоощущения человека.
Tes - Эффективная температура на солнце - температура, которую ощущает человек, с поправкой на солнечный нагрев. Характеристика знойности погоды. Зависит от высоты солнца над горизонтом, облачности и скорости ветра. Ночью, в пасмурную погоду, а также при ветре 12 м/с и более поправка равна нулю.
P - Атмосферное давление - приведенное к уровню моря атмосферное давление.
Po - Атмосферное давление - измеренное на уровне метеостанции атмосферное давление.
Tmin - Минимальная температура - минимум температуры воздуха на высоте 2 м над землей.
Tmax - Максимальная температура - максимум температуры воздуха на высоте 2 м над землей.
R - Количество осадков - Количество выпавших осадков, мм. При наведении курсора мыши на число - период времени, за который выпало указанное количество осадков.
S - Снежный покров - Высота снежного покрова, см. При наведении курсора мыши на число - состояние снежного покрова и степень покрытия местности в баллах.